Location: Newark
(49.8753°N, 23.0797°E)
Time: 04:00:45
(UTC+00:00)

X-37B - Pass Details

Date: 25 June 2021
Orbit: 383 x 392 km, 45.0° (Epoch: 01 July)

Event Time Altitude Azimuth Distance (km) Brightness Sun altitude
Rises 20:12:18 0° 244° (WSW) 2,253 4.5 -10.6°
Reaches altitude 10° 20:14:30 10° 233° (SW) 1,400 3.3 -10.8°
Maximum altitude 20:17:18 29° 170° (S) 729 1.4 -11.0°
Enters shadow 20:19:28 14° 114° (ESE) 1,184 2.6 -11.2°
